GFSNW_850_temp_195.txt.gz
Temp
2 2 2 2 2 2 2 3 3 5 4 4 3 3 5 8 8 9 9 8 7 7 8 8 8 8 9 10 8 8 7 5 4 6 6 6 6 6 5 7 5 4 3 7
1 2 2 2 2 2 3 4 5 4 4 2 2 4 5 7 8 8 8 8 7 7 8 8 7 8 10 9 8 8 7 5 4 6 7 7 6 6 6 6 5 6 5 6
0 1 1 2 2 2 2 3 1 3 3 3 4 4 5 5 8 7 8 7 8 7 7 6 7 8 9 9 9 9 8 5 5 6 8 6 6 5 5 5 3 5 6 7
-1 -1 -0 1 1 2 2 2 3 3 3 4 4 4 4 5 6 7 7 7 7 7 7 6 6 6 7 8 8 7 6 4 3 4 5 5 5 4 5 4 5 4 7 5
-1 -1 -1 -1 1 1 1 1 2 3 3 4 2 3 3 4 5 6 6 6 5 6 5 6 6 6 6 6 6 6 4 4 4 5 5 5 5 6 4 4 4 3 4 4
-0 -1 -1 -1 -0 0 0 1 1 1 2 3 3 4 3 5 5 6 6 5 4 4 5 7 7 7 7 7 6 4 4 3 4 5 4 5 6 7 7 7 5 5 6 6
-0 -1 -1 -1 -0 -0 -0 0 0 0 -0 2 3 3 2 3 4 3 4 4 4 5 6 6 7 6 5 4 4 5 3 3 3 3 4 6 9 8 8 7 6 5 5 6
-1 -1 -1 -1 -0 -0 -0 -0 -1 -1 -2 -0 0 1 2 2 2 2 2 3 4 5 5 4 4 4 5 6 4 1 3 3 4 3 3 6 9 8 8 8 8 7 7 6
-1 -0 -1 -1 -0 -0 -0 -1 -1 -1 -1 -1 1 -0 0 -0 0 1 2 4 5 4 3 3 4 4 6 6 5 1 2 3 3 2 4 7 10 9 8 8 7 8 7 5
-1 -1 -1 -0 -0 -1 -1 -1 -1 -1 -1 -1 -0 -0 -1 1 1 0 2 3 4 4 1 2 2 4 5 5 5 3 3 2 4 3 3 4 6 8 8 10 10 8 8 7
-1 -1 -1 -1 -1 -1 -2 -2 -2 -2 -2 -2 -1 -0 -0 -1 -0 -1 1 2 2 1 2 3 3 2 3 4 4 3 4 2 2 2 2 4 8 7 8 9 8 9 9 9
-2 -2 -2 -2 -2 -2 -2 -2 -2 -2 -3 -2 -2 -2 -1 -2 -0 -0 -0 1 2 2 1 1 1 2 0 2 4 3 4 5 4 4 5 7 9 8 10 9 9 9 9 10
-2 -2 -2 -2 -2 -3 -3 -3 -3 -3 -3 -3 -3 -3 0 -1 -1 -0 -2 -0 -0 1 2 2 1 1 1 2 1 4 4 5 5 5 8 6 8 10 9 9 8 11 10 10
-3 -3 -3 -3 -3 -3 -3 -3 -3 -4 -3 -4 -2 -1 -1 0 0 -0 -1 -1 -0 -0 1 1 2 2 3 2 3 3 5 4 5 4 6 8 9 9 10 10 9 10 9 9
-2 -3 -3 -3 -3 -3 -4 -4 -4 -4 -4 -4 -2 -1 -2 -1 -1 0 0 -1 -2 -1 -1 -0 0 2 1 2 1 2 4 4 4 4 7 8 8 9 9 8 9 9 9 9
-3 -3 -4 -4 -4 -4 -4 -4 -2 -0 -3 -4 -5 -2 -2 1 2 -1 -1 -1 -1 -1 -1 -0 -0 1 0 1 1 5 6 7 7 7 8 7 8 9 9 7 8 8 8 9
-4 -4 -4 -4 -4 -5 -5 -4 -3 -1 -3 -3 -3 -4 -1 0 -1 -1 -2 -1 -1 -1 -1 -1 -0 1 1 1 1 4 5 5 5 6 7 6 7 8 7 7 7 7 7 7
-5 -5 -4 -5 -4 -4 -5 -3 -4 -4 -3 -3 -3 -5 -2 0 -0 -1 -1 -1 -1 -1 -1 -1 1 1 0 -0 2 3 4 4 6 5 5 6 8 7 7 6 6 6 7 6
-5 -5 -5 -4 -2 -4 -3 -4 -4 -4 -4 -4 -5 -4 -4 -1 -1 -1 -1 -1 -1 -1 -1 0 1 1 0 2 3 3 3 4 5 7 7 5 6 7 6 6 6 6 6 6
-5 -4 -4 -5 -4 -3 -3 -2 -3 -4 -3 -5 -4 -1 -1 -1 -1 -1 -0 -1 -0 0 -0 1 -1 0 2 3 3 3 4 5 5 5 3 4 4 5 6 5 5 5 5 5
-5 -5 -4 -3 -3 -4 -4 -3 -2 -2 -3 -3 -2 -2 -1 -1 -0 -0 -1 0 0 0 -2 0 -0 1 3 3 2 3 3 4 6 6 7 7 7 6 5 4 4 4 4 4
-6 -6 -6 -5 -5 -5 -4 -1 -2 -1 -0 -1 -0 -1 -1 -1 -0 -0 -1 1 0 1 -0 1 -1 2 4 4 4 3 2 3 4 5 5 5 4 4 4 3 3 3 3 3
-6 -6 -6 -5 -4 -4 -3 -2 -1 -1 -3 -2 -1 -1 -1 -1 -1 -0 -0 1 1 -1 0 1 -2 -3 -3 -2 1 3 2 2 2 2 3 3 3 3 3 2 2 3 3 2
-6 -6 -5 -4 -4 -4 -4 -5 -5 -4 -4 -4 -3 -2 -1 -1 -1 0 1 -1 -2 0 1 -1 -4 -4 -5 -4 -3 -1 -0 -0 0 0 0 1 1 1 1 0 1 1 2 1
-6 -5 -5 -5 -6 -6 -5 -5 -6 -6 -5 -5 -4 -2 -1 -0 -0 -0 -1 -2 -1 -2 -3 -4 -5 -5 -5 -5 -4 -3 -3 -2 -2 -1 -1 -1 -1 -1 -1 -1 -0 0 1 1
-5 -5 -7 -6 -7 -7 -6 -6 -6 -6 -6 -6 -5 -2 0 0 -0 -1 -2 -3 -5 -4 -5 -6 -6 -6 -6 -5 -5 -5 -4 -4 -4 -3 -3 -3 -3 -2 -2 -1 -1 -1 -0 -0
-6 -6 -6 -6 -7 -6 -6 -7 -7 -7 -7 -5 -2 -2 -2 -3 -4 -3 -4 -6 -5 -6 -7 -6 -6 -6 -7 -6 -6 -5 -5 -5 -5 -5 -5 -5 -3 -2 -2 -1 -2 -1 -1 -1

GFSNW_850_temp_198.txt.gz
Temp
2 2 2 2 2 2 2 3 2 4 4 4 1 2 4 6 7 8 8 8 7 7 7 7 7 7 8 9 7 8 6 4 3 6 7 5 5 5 5 3 5 5 4 7
1 1 1 2 2 2 3 3 4 3 4 2 1 2 4 6 6 7 8 7 7 6 7 7 6 7 9 8 8 8 7 5 3 6 7 6 6 5 5 4 5 6 6 6
1 1 1 1 1 2 2 2 1 3 3 3 4 4 3 4 7 6 7 7 7 6 7 6 6 7 8 8 8 9 7 4 5 5 7 6 6 6 4 4 2 5 6 7
-1 -1 -0 0 1 1 2 2 2 3 2 2 3 4 4 3 4 6 6 6 6 6 6 6 6 6 5 7 7 6 5 4 3 4 4 5 5 5 4 3 4 4 6 4
-0 -0 -1 -0 0 1 1 2 2 2 2 3 2 3 4 3 4 5 5 5 3 4 5 5 4 4 5 4 6 6 3 4 4 4 4 4 4 6 5 4 3 3 4 4
-1 -0 -1 -1 -1 -0 0 1 0 1 1 2 3 3 3 4 3 5 4 3 2 3 4 5 5 5 5 5 5 4 3 3 3 4 3 4 7 7 6 6 3 4 5 5
-1 -1 -1 -1 -1 -1 -1 -0 -0 0 -1 -0 2 2 1 1 2 2 2 3 3 4 4 4 6 5 4 3 4 4 2 2 3 3 3 6 10 7 8 6 6 4 4 5
-1 -1 -1 -1 -1 -1 -1 -1 -1 -0 -1 -1 -1 0 1 1 1 1 1 2 3 4 3 2 3 3 3 4 3 1 3 2 3 3 2 4 9 8 8 9 8 6 5 6
-1 -1 -1 -1 -1 -0 -1 -1 -1 -1 -1 -2 0 -0 -0 -1 -1 -1 1 2 3 3 2 2 3 4 4 5 4 0 1 2 3 1 4 6 8 8 8 8 9 8 7 5
-1 -1 -1 -0 -0 -1 -1 -1 -1 -1 -2 -1 -1 -1 -1 0 -0 -2 1 1 2 3 1 2 3 4 4 4 4 2 1 1 2 2 3 4 5 6 8 9 10 8 7 7
-1 -1 -1 -1 -1 -1 -1 -1 -2 -2 -2 -2 -2 -1 -1 -1 -0 -1 0 -0 1 1 2 2 2 2 2 3 3 2 2 1 1 2 2 3 6 7 9 8 9 9 8 8
-2 -2 -2 -2 -2 -2 -2 -2 -2 -3 -3 -2 -2 -1 -2 -1 -0 -1 -1 0 -0 1 1 1 1 2 1 1 3 2 3 4 2 3 4 6 7 8 10 9 8 9 8 9
-2 -2 -2 -2 -2 -3 -3 -3 -3 -3 -3 -3 -3 -2 -0 -1 0 -1 -2 -1 -1 -0 0 -0 1 1 0 1 0 3 3 4 3 4 6 5 8 8 9 9 9 9 8 9
-2 -3 -3 -3 -4 -4 -4 -4 -3 -3 -3 -4 -3 -1 -2 -1 -1 -0 -1 -1 -1 -1 -1 -1 -1 -0 2 1 1 1 3 3 3 2 4 8 8 8 9 9 9 9 9 8
-3 -3 -3 -3 -3 -4 -4 -4 -4 -3 -4 -4 -3 -3 -1 -1 -0 1 1 -1 -2 -2 -2 -1 -1 -0 -0 1 1 1 2 3 4 5 6 5 6 7 8 8 8 8 8 8
-3 -3 -4 -5 -4 -5 -5 -4 -2 -3 -4 -4 -4 -3 -2 -0 0 -1 -0 -1 -3 -2 -1 -1 -1 -0 0 -1 -0 3 3 3 5 5 5 5 6 6 8 8 8 7 7 8
-4 -5 -5 -5 -4 -5 -5 -4 -3 -3 -4 -4 -5 -5 -1 -1 -2 -2 -2 -2 -3 -2 -2 -1 -1 -1 -0 -0 -0 2 3 4 4 4 4 3 5 6 6 6 7 7 7 7
-4 -5 -5 -4 -3 -5 -5 -3 -4 -4 -5 -4 -5 -5 -2 -0 -1 -2 -1 -2 -2 -2 -1 -1 -1 -1 -1 -0 2 3 2 2 3 4 6 5 6 6 6 6 6 7 7 6
-5 -5 -4 -3 -3 -5 -5 -4 -4 -4 -5 -5 -6 -8 -8 -1 -1 -1 -2 -1 -1 -2 -1 -1 -1 -0 -0 1 3 3 3 2 3 4 4 4 4 5 5 5 6 7 6 6
-5 -4 -4 -3 -4 -4 -5 -3 -4 -5 -4 -5 -6 -3 -6 -1 -1 -2 -2 -2 -1 -1 -1 0 -1 0 2 3 3 2 2 3 3 2 2 3 3 4 4 5 6 6 6 6
-6 -5 -5 -4 -4 -6 -6 -5 -4 -4 -4 -3 -3 -3 -4 -2 -2 -2 -1 -0 -0 -1 -3 -1 -2 -1 2 2 2 2 2 2 3 4 4 4 5 4 5 5 5 5 5 5
-6 -6 -6 -6 -6 -5 -5 -5 -2 -3 -3 -2 -3 -2 -3 -3 -2 -1 -1 -0 -0 0 -2 -0 -2 -3 -3 -2 -0 1 1 1 2 2 3 4 4 4 4 5 4 4 4 4
-6 -7 -6 -6 -5 -6 -4 -4 -4 -4 -4 -4 -4 -3 -2 -3 -2 -1 -0 -0 -0 -2 0 -1 -3 -4 -5 -4 -2 -0 1 1 1 1 2 2 3 3 3 3 3 3 3 3
-7 -6 -5 -8 -6 -5 -6 -5 -5 -5 -5 -5 -5 -4 -2 -1 -2 -1 1 -1 -1 1 -1 -1 -5 -6 -6 -5 -4 -4 -3 -1 1 0 0 1 1 2 2 1 1 2 2 2
-7 -6 -6 -10 -5 -5 -5 -5 -6 -6 -6 -6 -5 -4 -4 -1 -1 -1 -2 -0 -2 -3 -4 -5 -6 -7 -7 -6 -6 -5 -5 -4 -3 -2 -1 -0 0 0 -1 -1 -1 -1 0 -0
-7 -6 -8 -6 -8 -7 -6 -6 -6 -7 -6 -7 -6 -5 -2 -1 -1 -0 -1 -3 -4 -5 -6 -7 -7 -7 -7 -7 -7 -6 -5 -4 -4 -4 -3 -3 -3 -3 -3 -3 -2 -2 -2 -2
-6 -6 -6 -6 -6 -7 -7 -7 -7 -8 -8 -7 -5 -2 -2 -3 -3 -5 -6 -6 -6 -7 -7 -7 -8 -8 -8 -7 -7 -7 -6 -6 -5 -5 -5 -5 -5 -4 -4 -4 -4 -4 -4 -3

GFSNW_850_temp_201.txt.gz
Temp
2 2 2 2 2 3 2 3 2 4 3 3 0 2 4 5 6 7 7 7 7 7 7 7 7 7 8 8 7 7 6 3 4 6 6 6 5 5 5 4 4 4 5 7
1 1 1 2 2 2 2 2 3 3 4 2 1 2 3 5 6 6 7 7 6 6 6 6 6 7 8 7 8 7 6 5 3 7 6 5 5 5 5 4 4 5 5 7
0 0 1 1 1 1 2 1 -0 3 3 3 3 3 3 4 6 5 6 6 6 6 6 5 6 6 7 7 7 8 7 4 5 5 6 6 6 6 5 5 4 4 5 7
0 -0 0 0 1 1 2 2 1 1 0 2 3 4 4 4 3 5 5 4 3 4 5 5 5 5 4 6 6 5 4 4 2 4 4 4 5 5 5 4 5 4 5 4
-0 -0 0 0 1 1 1 1 1 2 2 2 2 3 3 4 3 4 5 3 2 3 4 4 3 3 4 3 5 5 3 4 3 4 5 3 4 5 5 5 4 4 4 4
-0 -0 -0 -0 -0 -0 -0 -0 0 1 1 1 3 3 2 2 3 3 3 2 2 2 3 3 3 3 3 4 4 4 3 3 3 4 3 5 5 5 5 6 4 3 4 5
-1 -1 -0 -0 -1 -1 -1 -1 -1 -0 -1 -1 0 1 1 1 1 1 1 1 2 3 3 3 4 4 2 2 3 4 2 2 3 3 3 5 9 6 6 7 6 4 4 4
-1 -1 -1 -1 -1 -1 -1 -1 -1 -1 -1 -1 -0 -0 0 0 1 -0 1 2 2 2 2 1 2 2 3 2 1 1 2 2 3 2 2 4 9 8 8 8 9 7 5 5
-1 -1 -1 -0 -0 -1 -1 -1 -1 -1 -2 -2 -0 -1 -0 -2 -2 -2 0 1 2 2 -0 1 1 2 4 4 3 -1 -0 1 3 1 3 5 9 8 7 7 8 7 6 7
-1 -1 -1 -1 -0 -1 -1 -1 -1 -1 -2 -1 -1 -2 -1 -0 -1 -2 -0 0 1 1 2 2 2 2 3 3 4 1 0 1 2 2 2 3 5 5 7 9 8 7 7 7
-1 -1 -2 -2 -1 -1 -2 -1 -2 -2 -2 -2 -2 -2 -1 -1 -1 -1 -0 -1 -0 -0 1 2 2 1 1 2 2 1 1 1 1 2 2 3 6 7 8 7 7 8 8 8
-2 -2 -2 -2 -2 -2 -2 -2 -2 -2 -3 -2 -2 -1 -1 -1 -1 -1 -1 0 -1 -0 -0 -0 -0 1 1 0 2 1 2 3 2 2 4 5 7 7 8 7 7 7 7 8
-2 -2 -2 -2 -2 -3 -3 -3 -3 -3 -4 -3 -3 -1 -1 -1 -1 -1 -2 -2 -1 -1 -0 -1 -2 -1 0 1 -0 1 3 3 2 3 6 3 7 8 7 6 7 7 7 7
-2 -2 -2 -2 -3 -3 -4 -4 -3 -4 -4 -4 -3 -2 -2 -1 -1 -1 -1 -1 -2 -1 -1 -1 -2 -1 0 -2 0 -0 2 1 1 1 3 6 6 6 6 6 7 8 8 7
-2 -2 -2 -2 -3 -4 -5 -5 -3 -3 -4 -5 -4 -4 -2 -1 -2 -1 -1 -2 -3 -3 -2 -2 -2 -1 -1 -1 -2 -1 1 2 2 3 5 3 4 5 5 5 7 8 7 7
-3 -3 -3 -3 -4 -4 -5 -4 -4 -3 -4 -5 -6 -3 -2 -2 -2 -1 -2 -3 -4 -3 -2 -2 -2 -1 -1 -3 -2 1 2 2 2 2 3 3 4 4 4 5 7 8 7 7
-3 -4 -4 -3 -4 -5 -5 -4 -4 -4 -4 -5 -6 -6 -1 -1 -2 -3 -3 -3 -4 -3 -3 -2 -2 -1 -1 -1 -1 1 2 3 3 3 3 2 2 3 5 6 6 6 6 7
-4 -4 -4 -3 -3 -4 -4 -4 -4 -5 -5 -5 -6 -7 -4 -1 -1 -2 -2 -3 -4 -4 -2 -2 -2 -1 -2 -2 -0 1 1 2 2 2 3 3 3 3 3 4 4 5 5 6
-4 -4 -3 -3 -3 -4 -4 -4 -4 -5 -5 -5 -6 -8 -10 -3 -2 -2 -3 -2 -3 -2 -3 -1 -1 -1 -1 -0 1 2 2 2 2 2 2 2 2 3 3 3 4 4 5 5
-4 -4 -3 -3 -4 -5 -5 -4 -5 -5 -5 -4 -6 -5 -8 -2 -2 -2 -1 -2 -2 -3 -1 -1 -2 -1 1 2 2 2 2 2 2 2 1 1 1 2 3 4 4 4 4 4
-5 -5 -4 -4 -5 -6 -6 -6 -6 -5 -5 -4 -4 -4 -5 -3 -4 -3 -2 -3 -1 -2 -3 -2 -4 -2 -2 -3 -2 -1 -1 -0 0 1 2 2 2 2 3 3 3 4 4 4
-6 -6 -6 -6 -6 -6 -7 -9 -7 -4 -4 -4 -4 -4 -4 -4 -4 -4 -4 -4 -3 -2 -3 -3 -3 -3 -5 -5 -4 -3 -2 -2 -1 -0 1 1 1 1 2 3 3 3 3 4
-6 -7 -7 -7 -6 -8 -9 -8 -6 -5 -5 -5 -5 -5 -5 -3 -4 -3 -3 -0 -1 -2 -1 -1 -4 -5 -6 -6 -5 -4 -3 -3 -3 -1 0 1 1 1 1 2 3 3 2 3
-7 -7 -11 -8 -11 -9 -8 -8 -6 -5 -5 -6 -6 -6 -4 -3 -2 -2 -0 -1 -2 -0 -1 -2 -6 -7 -7 -7 -7 -7 -6 -5 -4 -2 -0 0 0 0 1 2 2 1 1 2
-7 -7 -11 -12 -6 -6 -5 -5 -6 -5 -6 -7 -7 -6 -5 -3 -1 -1 -2 -2 -2 -4 -5 -5 -7 -7 -8 -8 -7 -7 -7 -7 -5 -4 -3 -2 -1 0 -0 -1 -0 -1 0 0
-8 -7 -7 -7 -9 -8 -6 -6 -6 -7 -7 -7 -7 -7 -5 -2 -1 -1 -3 -3 -5 -5 -6 -7 -8 -8 -8 -8 -8 -8 -7 -7 -6 -5 -5 -4 -3 -3 -2 -2 -3 -2 -2 -2
-8 -7 -7 -7 -7 -7 -7 -7 -7 -8 -8 -8 -6 -5 -3 -4 -3 -5 -6 -6 -6 -8 -8 -8 -8 -8 -8 -8 -8 -8 -8 -7 -7 -7 -6 -6 -6 -5 -4 -4 -5 -4 -4 -4

GFSNW_850_temp_204.txt.gz
Temp
2 2 2 3 3 3 4 3 5 4 3 6 3 6 5 5 7 7 8 8 9 9 9 9 10 10 9 8 8 9 8 8 8 10 8 8 9 9 9 8 7 8 7 8
2 2 2 2 3 3 3 1 2 3 4 6 6 5 5 5 6 7 8 8 8 8 8 9 8 9 8 7 8 9 9 8 8 11 8 7 8 8 9 8 7 7 7 12
2 2 1 2 2 2 2 1 4 3 3 4 4 5 5 5 5 6 6 6 7 7 7 8 8 8 7 6 7 7 7 8 8 9 10 10 9 9 9 8 7 8 9 11
1 0 1 1 2 2 2 2 2 2 4 4 4 4 5 5 5 6 5 6 5 5 7 7 7 6 7 7 6 6 8 7 7 7 7 7 8 8 8 7 8 7 11 9
-0 -0 0 1 1 2 1 1 1 2 3 3 3 4 5 5 5 5 6 5 4 4 5 6 5 5 5 6 7 7 6 7 6 6 8 7 7 8 8 8 7 8 8 8
-0 -0 0 0 1 1 0 0 1 1 1 3 4 4 3 3 2 3 2 1 2 4 4 4 3 3 4 5 5 6 6 6 6 6 7 7 9 11 9 9 8 8 7 10
-0 -0 -0 -0 -0 0 -0 -0 -0 0 2 1 3 2 1 2 2 2 2 2 2 3 3 2 3 4 4 5 5 6 6 5 5 5 7 7 11 10 8 9 10 8 8 9
-1 -0 -0 -0 -1 -1 -1 -1 -1 -0 1 1 1 1 1 1 1 1 1 2 2 1 1 3 5 6 6 6 5 4 5 6 5 5 7 9 10 9 10 10 11 9 8 9
-1 -1 -1 -1 -1 -1 -1 -1 -1 -1 -1 1 0 0 0 1 1 1 0 1 1 1 2 3 3 4 6 6 3 2 3 4 5 5 5 8 10 8 8 9 11 9 8 9
-1 -1 -1 -1 -1 -1 -1 -1 -1 -1 -2 -1 -1 -0 0 -0 -0 1 0 -0 1 1 3 3 4 4 5 5 5 3 2 2 3 5 5 7 9 8 6 9 10 8 7 8
-1 -1 -2 -2 -1 -1 -1 -1 -1 -2 -2 -2 -2 -1 -1 -1 -1 1 1 1 0 1 1 3 5 4 5 4 6 4 5 4 3 4 4 5 6 7 9 8 7 6 7 7
-1 -1 -2 -2 -2 -2 -1 -2 -2 -2 -3 -2 -1 -1 -2 -2 -1 -1 -1 0 0 1 1 0 1 1 2 2 4 4 5 6 6 6 7 7 6 7 7 5 6 6 5 6
-1 -1 -1 -2 -2 -2 -2 -2 -3 -3 -4 -3 -4 -2 -1 -1 -1 -2 -2 -1 -1 -0 0 0 1 -0 2 2 4 3 5 3 5 5 8 6 5 6 6 5 6 7 7 7
-1 -1 -2 -2 -2 -2 -2 -2 -3 -4 -4 -4 -2 -2 -1 -0 -1 -2 -2 -2 -2 -2 -2 -2 -1 -0 2 1 2 3 4 4 4 4 5 5 7 6 6 5 5 6 6 7
-2 -2 -2 -2 -2 -3 -2 -3 -3 -4 -4 -4 -3 -4 -0 -1 -2 -2 -2 -3 -3 -3 -3 -2 -1 -1 -1 0 1 1 2 2 3 4 5 6 6 6 5 4 4 4 5 6
-2 -2 -2 -3 -3 -4 -5 -4 -3 -3 -4 -5 -4 -4 -3 -2 -1 -2 -3 -4 -4 -4 -3 -2 -2 -2 -1 -0 1 2 2 1 1 3 3 3 3 3 3 3 4 3 4 6
-2 -2 -3 -3 -4 -4 -4 -4 -4 -4 -4 -5 -5 -5 -2 -2 -2 -1 -2 -3 -4 -4 -3 -3 -2 -1 -1 -1 -1 1 1 2 2 2 2 2 2 2 3 2 3 3 4 4
-3 -3 -3 -3 -3 -4 -4 -4 -5 -5 -5 -5 -5 -5 -4 -2 -2 -2 -3 -4 -4 -4 -3 -2 -1 -1 -2 -2 0 1 1 1 0 1 1 2 2 2 2 2 2 2 2 3
-3 -3 -3 -3 -3 -4 -5 -4 -5 -5 -5 -5 -5 -5 -4 -3 -3 -3 -3 -4 -3 -3 -3 -2 -1 -1 -2 1 1 1 1 1 1 1 1 1 1 1 2 2 2 2 2 3
-3 -3 -3 -4 -4 -5 -5 -5 -5 -5 -5 -5 -5 -5 -4 -3 -3 -3 -2 -2 -1 -1 -1 -1 -2 -0 1 1 -1 -3 -3 -4 -3 -2 -1 1 1 1 1 1 2 2 2 3
-4 -4 -4 -5 -6 -6 -6 -6 -6 -5 -5 -5 -4 -5 -4 -4 -4 -4 -3 -2 -1 -0 1 -0 0 -1 -3 -4 -5 -5 -5 -5 -5 -4 -2 -3 -2 0 1 1 1 2 3 3
-5 -5 -6 -7 -6 -6 -7 -7 -7 -6 -4 -4 -4 -4 -5 -5 -5 -4 -3 -3 -2 -1 -2 -1 -0 -3 -5 -6 -6 -6 -6 -6 -6 -6 -4 -2 -2 -1 -1 0 1 1 2 2
-6 -6 -7 -7 -7 -7 -7 -6 -5 -4 -5 -5 -5 -5 -5 -5 -4 -4 -3 -2 -1 -1 -1 0 -3 -5 -6 -7 -8 -7 -7 -7 -7 -6 -5 -3 -1 0 -0 0 0 1 1 2
-6 -7 -10 -8 -8 -8 -7 -5 -5 -5 -5 -6 -7 -6 -6 -4 -3 -3 -1 -0 -0 1 1 -2 -4 -7 -8 -8 -8 -8 -8 -8 -7 -6 -5 -3 -1 -0 -0 -0 0 1 1 2
-6 -7 -10 -9 -7 -6 -6 -6 -6 -6 -6 -7 -7 -7 -6 -4 -3 -1 -1 0 -0 -3 -4 -5 -7 -8 -9 -8 -8 -8 -8 -8 -8 -7 -6 -4 -3 -2 -1 -1 -0 -0 -1 0
-7 -8 -8 -8 -8 -8 -6 -6 -7 -7 -7 -8 -8 -7 -6 -4 -2 -2 -4 -3 -4 -5 -6 -8 -8 -8 -9 -9 -9 -9 -9 -8 -8 -8 -7 -6 -5 -4 -4 -3 -2 -2 -2 -2
-8 -8 -8 -8 -8 -7 -7 -7 -7 -8 -9 -7 -6 -6 -5 -4 -3 -4 -5 -5 -6 -8 -8 -8 -8 -9 -9 -9 -9 -9 -9 -9 -8 -8 -8 -8 -7 -6 -5 -5 -6 -5 -5 -5

GFSNW_850_temp_207.txt.gz
Temp
4 4 3 4 5 5 5 3 8 4 5 8 8 9 7 6 8 9 9 9 10 10 11 11 11 11 11 10 10 11 11 10 9 11 11 10 10 11 11 9 9 9 8 9
3 3 3 3 4 4 4 4 4 4 5 9 9 8 7 7 8 9 9 9 9 10 10 9 11 11 9 9 10 10 10 10 9 12 9 9 9 11 10 10 10 8 8 12
2 2 3 3 3 3 3 4 7 5 5 5 6 7 8 7 7 7 7 8 8 9 9 10 9 9 9 8 8 7 8 9 9 9 11 11 9 10 11 10 9 9 10 11
2 2 2 2 3 3 3 3 6 4 7 7 6 7 7 7 7 7 7 8 7 6 7 9 9 9 8 9 8 8 9 8 9 10 9 9 8 8 9 9 9 9 10 11
1 1 1 2 2 2 1 4 4 4 5 5 5 5 7 6 7 6 7 6 5 6 5 7 5 5 7 7 8 8 8 7 8 7 9 9 8 9 9 10 10 10 10 10
1 0 0 1 1 1 0 1 1 2 4 5 6 7 6 4 4 4 4 3 3 4 5 4 5 4 4 5 6 6 6 6 6 6 9 8 8 11 11 11 11 11 10 12
-0 -0 0 0 0 0 0 0 0 2 5 4 5 4 3 4 4 3 4 4 4 4 3 3 4 4 5 5 6 6 6 6 5 5 7 6 12 12 12 11 12 11 11 11
-0 -0 -0 -0 -0 0 -0 -0 0 1 3 3 3 3 3 3 3 3 3 3 3 2 2 4 5 8 7 7 7 7 7 6 6 5 7 9 10 10 11 11 10 10 10 10
-0 -0 -1 -0 -0 -0 -1 -1 -1 -1 1 3 2 2 2 2 3 4 3 2 2 1 3 4 4 6 7 7 5 4 5 6 6 7 5 7 9 9 9 10 11 9 9 10
-1 -1 -0 -0 -0 -0 -1 -1 -1 -1 -1 1 0 2 2 2 2 3 3 2 2 2 3 4 5 5 7 5 7 5 4 3 4 5 6 8 10 8 8 9 9 8 8 9
-1 -1 -1 -1 -0 -0 -1 -1 -2 -1 -2 -1 -1 -0 0 1 0 2 2 2 2 2 2 4 5 6 6 5 7 7 6 5 4 4 4 5 8 9 8 8 8 7 7 7
-1 -1 -1 -1 -1 -1 -1 -1 -2 -2 -2 -1 -1 -1 -1 -1 -0 -0 0 1 2 2 2 2 2 3 3 4 4 6 5 7 6 6 7 9 8 7 7 6 7 7 6 6
-1 -1 -1 -1 -1 -1 -1 -2 -2 -3 -3 -2 -2 -2 -2 -2 -2 -1 -1 -0 0 0 0 1 1 0 3 1 4 5 6 5 5 6 8 8 7 6 6 7 6 6 6 6
-1 -2 -2 -1 -1 -1 -2 -2 -3 -4 -4 -3 -1 -1 -1 -1 -1 -3 -2 -2 -1 -1 -2 -1 0 0 1 2 3 3 4 4 4 4 5 5 6 8 7 6 5 5 5 5
-1 -1 -2 -2 -1 -2 -2 -2 -3 -4 -4 -2 -2 -3 -2 -2 -2 -3 -2 -3 -2 -2 -1 -1 -1 -0 0 1 2 1 2 3 3 3 5 5 5 5 5 4 4 4 4 4
-2 -2 -2 -2 -2 -2 -3 -4 -3 -3 -5 -4 -3 -2 -3 -3 -2 -3 -2 -3 -3 -2 -3 -2 -2 -1 -0 -1 1 2 3 3 2 3 2 3 3 3 3 3 3 3 3 3
-2 -2 -2 -3 -3 -4 -4 -4 -4 -4 -4 -4 -3 -3 -2 -2 -2 -3 -2 -3 -3 -3 -3 -3 -2 -1 -0 -1 -1 1 2 2 2 2 2 2 3 3 3 3 3 3 3 2
-2 -2 -3 -3 -4 -4 -4 -5 -5 -5 -5 -5 -4 -3 -3 -2 -1 -1 -3 -2 -3 -4 -3 -2 -1 -0 -2 -2 0 1 2 2 2 2 2 2 1 2 2 2 2 2 2 2
-2 -2 -3 -3 -3 -5 -5 -5 -5 -4 -5 -4 -4 -3 -3 -3 -2 -2 -2 -3 -2 -2 -3 -2 -0 -1 -1 1 1 -1 -2 -2 -2 -2 -1 -1 0 1 2 2 2 2 2 2
-2 -3 -3 -5 -5 -5 -5 -5 -5 -6 -5 -5 -4 -4 -3 -3 -2 -3 -2 -1 -1 -1 -0 -1 -2 -0 1 -2 -4 -4 -4 -4 -4 -4 -4 -3 -2 -1 -0 1 1 2 2 2
-3 -4 -4 -5 -6 -5 -6 -6 -5 -5 -4 -4 -4 -4 -3 -3 -3 -3 -3 -2 -1 -1 1 -0 1 0 -4 -5 -5 -5 -6 -6 -6 -5 -5 -5 -5 -4 -3 -2 -1 0 1 1
-4 -4 -5 -6 -6 -6 -5 -5 -5 -5 -3 -3 -3 -3 -4 -4 -4 -4 -3 -2 -1 -1 -1 -0 1 -3 -5 -6 -6 -7 -7 -7 -7 -7 -7 -6 -6 -5 -5 -4 -1 -1 0 1
-4 -5 -7 -7 -7 -6 -5 -5 -4 -3 -4 -4 -4 -5 -5 -4 -4 -3 -3 -2 -2 0 -1 1 -2 -5 -6 -7 -8 -8 -8 -8 -8 -8 -8 -8 -7 -6 -6 -4 -1 -1 -1 0
-5 -7 -8 -6 -6 -5 -4 -3 -3 -4 -5 -5 -5 -5 -5 -4 -3 -2 -2 -0 0 1 -0 -2 -4 -7 -8 -9 -9 -9 -9 -9 -8 -8 -8 -7 -6 -5 -4 -4 -2 -2 -1 -0
-6 -7 -6 -7 -5 -6 -6 -6 -6 -6 -6 -6 -6 -6 -6 -5 -4 -2 -1 -0 -1 -3 -3 -4 -6 -8 -9 -9 -9 -9 -9 -9 -8 -8 -8 -8 -7 -6 -5 -4 -2 -2 -1 -1
-6 -7 -7 -7 -7 -5 -6 -6 -6 -7 -7 -8 -8 -7 -6 -5 -3 -2 -3 -3 -3 -4 -6 -7 -8 -9 -9 -9 -9 -9 -9 -9 -9 -9 -8 -8 -8 -7 -7 -5 -4 -4 -3 -3
-8 -7 -8 -7 -7 -6 -6 -6 -6 -8 -8 -6 -6 -5 -5 -4 -3 -3 -4 -5 -5 -7 -7 -8 -9 -9 -9 -8 -8 -9 -9 -9 -9 -9 -9 -9 -8 -8 -7 -7 -7 -6 -6 -5

GFSNW_850_temp_210.txt.gz
Temp
6 7 7 7 7 7 6 5 7 6 6 7 9 8 8 7 9 9 9 9 10 10 10 10 10 11 10 10 10 9 9 8 6 9 9 10 9 9 10 4 6 5 4 6
5 5 6 7 6 6 6 5 5 6 6 7 8 8 8 7 8 9 9 9 10 9 9 8 10 10 9 8 9 8 8 7 5 9 8 8 9 10 10 9 8 6 4 7
4 4 5 5 5 5 5 4 6 6 6 6 7 7 8 7 7 7 8 8 8 8 8 9 9 9 9 8 8 7 7 7 7 6 8 9 7 8 8 8 6 6 8 8
5 4 4 3 4 4 4 4 6 4 6 7 6 7 7 7 7 7 7 7 7 6 6 7 8 7 7 8 8 7 7 5 6 7 8 8 7 7 7 6 7 6 8 8
4 3 2 3 3 3 3 3 4 5 5 6 6 6 7 6 7 6 7 6 5 5 5 6 5 5 5 6 8 7 8 5 5 4 7 7 6 8 8 8 8 8 8 8
3 2 3 2 3 3 1 2 2 2 4 6 5 6 6 4 4 4 4 4 4 4 4 4 3 4 4 4 4 4 5 4 5 4 6 5 5 8 9 9 10 9 7 9
3 1 1 1 2 2 1 1 1 3 4 4 5 5 4 4 4 4 4 3 3 4 3 3 3 3 3 3 4 4 4 4 4 3 4 3 8 9 8 8 10 9 8 8
2 0 1 1 1 1 1 1 1 1 2 4 4 4 4 4 4 3 3 3 2 2 2 1 3 4 4 5 5 4 4 4 3 2 3 5 7 8 7 7 7 8 7 7
1 0 0 0 0 1 0 0 0 0 0 3 2 3 3 2 2 3 4 3 2 2 2 2 3 3 5 5 4 4 4 4 3 3 4 4 7 7 8 8 6 7 7 6
1 0 0 0 0 0 -0 -1 -0 -0 -1 1 1 2 1 2 2 1 3 2 2 2 1 2 2 3 5 4 5 2 3 3 2 3 3 5 6 7 8 7 5 7 6 6
0 -0 0 0 0 -0 -1 -1 -1 -1 -1 -1 0 0 0 1 1 0 2 1 2 1 1 2 3 3 3 2 4 4 4 2 3 3 3 3 7 7 6 6 7 6 6 6
-1 -0 -0 -1 -0 -1 -1 -2 -2 -2 -2 -1 -0 0 0 -1 -0 -0 0 1 0 2 -1 -1 -1 1 0 0 -0 3 3 4 3 3 5 7 7 6 6 6 6 6 5 5
-1 -1 -1 -1 -1 -1 -1 -2 -2 -2 -2 -2 -2 -1 -1 -1 -1 -1 -1 -1 -0 0 0 -1 -1 -1 -0 -2 -0 1 3 4 3 2 4 5 5 5 6 5 5 5 5 5
-1 -1 -1 -1 -0 -1 -1 -1 -2 -3 -3 -4 -2 -1 -1 -2 -2 -2 -2 -2 -1 -2 -1 -1 -2 -2 1 -1 -0 -0 1 1 1 2 3 4 5 5 4 3 3 3 3 4
-1 -1 -1 -1 -1 -1 -1 -2 -2 -4 -3 -3 -3 -2 -3 -3 -2 -2 -3 -3 -2 -2 -2 -2 -3 -1 -2 -1 -1 -1 0 0 -0 0 2 2 2 3 2 2 2 2 2 3
-1 -1 -2 -1 -1 -2 -2 -4 -3 -3 -3 -4 -5 -3 -2 -2 -2 -2 -3 -3 -3 -2 -2 -2 -2 -1 -1 -4 -3 1 2 2 2 2 2 2 2 2 2 2 2 2 2 2
-2 -2 -2 -2 -2 -3 -3 -3 -4 -4 -4 -4 -4 -3 -2 -2 -2 -2 -2 -2 -2 -3 -3 -3 -3 -2 -1 -3 -3 -0 -0 -0 -0 1 1 1 1 1 1 1 2 2 2 2
-2 -2 -2 -2 -3 -3 -4 -4 -4 -4 -4 -4 -6 -6 -3 -2 -2 -1 -2 -2 -3 -4 -3 -3 -2 -1 -3 -4 -1 -1 -2 -2 -1 -0 -0 -1 -0 -0 0 1 1 1 2 2
-3 -2 -3 -3 -4 -5 -5 -5 -5 -5 -4 -4 -4 -6 -6 -2 -2 -2 -2 -3 -3 -2 -4 -3 -2 -3 -4 -2 -4 -4 -5 -4 -5 -5 -5 -5 -4 -3 -3 -2 -1 -1 0 1
-3 -3 -3 -5 -5 -5 -4 -5 -5 -6 -5 -5 -4 -3 -6 -3 -3 -3 -3 -2 -2 -3 -3 -2 -4 -2 -3 -5 -5 -5 -6 -6 -6 -6 -6 -6 -6 -6 -5 -5 -4 -4 -2 -0
-3 -3 -4 -5 -5 -5 -5 -6 -6 -5 -5 -5 -4 -4 -5 -3 -4 -4 -3 -4 -5 -4 -3 -2 -2 -2 -5 -6 -7 -7 -8 -8 -8 -8 -8 -7 -7 -7 -7 -6 -6 -5 -4 -2
-3 -3 -5 -6 -6 -6 -6 -9 -5 -7 -6 -3 -4 -4 -4 -4 -4 -4 -3 -6 -5 -5 -1 -2 -2 -5 -6 -7 -8 -8 -9 -9 -9 -8 -8 -8 -8 -8 -8 -7 -7 -6 -5 -3
-4 -4 -6 -6 -7 -8 -8 -10 -8 -5 -4 -4 -5 -5 -5 -5 -4 -4 -5 -6 -6 -0 -2 -2 -4 -6 -7 -8 -9 -9 -9 -9 -9 -9 -8 -8 -8 -7 -6 -5 -5 -6 -5 -3
-4 -6 -11 -10 -11 -9 -7 -5 -6 -5 -5 -5 -6 -6 -5 -5 -5 -4 -6 -5 -3 -3 -2 -3 -6 -7 -8 -8 -9 -10 -10 -9 -9 -9 -8 -8 -8 -8 -7 -5 -5 -4 -4 -3
-5 -6 -10 -11 -6 -6 -5 -5 -5 -6 -6 -7 -6 -6 -6 -6 -6 -6 -5 -4 -2 -4 -4 -5 -7 -8 -9 -9 -9 -10 -9 -10 -10 -9 -9 -9 -8 -8 -7 -6 -4 -4 -3 -2
-6 -6 -8 -7 -6 -6 -6 -6 -6 -7 -7 -7 -8 -7 -8 -9 -6 -5 -4 -4 -5 -6 -7 -7 -8 -9 -9 -9 -9 -9 -9 -9 -10 -10 -9 -9 -9 -9 -8 -8 -7 -6 -5 -5
-7 -7 -7 -6 -7 -6 -6 -6 -6 -7 -8 -10 -6 -9 -9 -5 -5 -4 -7 -6 -6 -7 -7 -8 -9 -9 -9 -8 -9 -9 -8 -9 -9 -9 -9 -9 -9 -9 -8 -9 -8 -8 -7 -7

GFSNW_850_temp_216.txt.gz
Temp
8 8 8 9 9 9 9 9 6 7 8 7 4 4 7 7 7 8 8 8 7 7 7 6 8 8 7 8 8 7 7 5 4 5 7 7 7 7 6 3 4 1 0 4
8 8 8 9 9 9 9 7 7 7 7 4 3 5 7 7 7 6 6 6 6 6 7 6 7 8 7 7 7 7 7 4 2 5 6 7 7 8 7 6 4 4 3 6
7 7 8 9 8 8 8 7 3 6 7 5 4 5 6 6 7 6 6 6 6 6 5 5 5 6 6 6 7 7 7 4 4 5 6 5 5 5 5 5 5 5 5 7
7 7 7 8 8 7 7 6 4 4 3 4 4 5 5 5 6 6 6 5 4 4 4 4 4 4 3 5 6 6 5 3 3 4 4 4 4 4 4 4 5 4 6 6
7 7 7 8 7 7 6 6 5 4 3 4 4 3 4 4 4 4 5 4 3 3 3 4 2 2 3 3 3 3 3 3 3 3 3 3 3 3 4 4 4 4 5 5
7 7 7 7 7 7 6 5 4 4 3 3 2 2 4 3 4 4 4 3 2 2 2 2 2 2 2 3 2 2 2 2 2 2 1 3 3 4 4 4 5 4 4 4
7 7 6 6 6 5 5 5 4 3 2 1 2 4 4 3 3 3 3 3 2 3 2 3 3 1 0 1 1 1 1 2 2 -0 1 -0 3 4 4 4 4 3 4 3
7 7 6 4 5 4 4 4 4 4 0 1 2 3 3 2 2 2 2 3 3 3 2 0 1 2 3 2 0 -1 1 -0 -0 -1 -0 1 3 5 5 5 4 3 3 3
7 6 5 3 4 2 3 3 3 3 2 -0 2 2 2 0 -0 0 2 2 2 2 0 0 1 1 3 3 2 -0 -1 -0 -0 -0 1 1 4 4 4 4 3 2 3 3
7 5 3 1 1 1 2 2 2 2 1 1 1 1 1 1 0 -1 0 1 1 1 -1 0 0 0 1 1 1 1 -1 -1 -0 0 1 1 2 2 5 4 1 1 1 2
4 1 -0 -1 -0 0 1 1 1 1 0 -0 0 0 1 0 1 -1 0 -0 -0 -1 -1 -1 -1 -1 -2 -2 -1 1 1 1 -0 0 0 1 1 2 1 1 1 0 0 1
1 -0 -0 -1 -1 -1 -0 -1 -1 -1 -1 -0 -0 -0 -0 -0 -1 -0 -0 -1 -1 -0 -3 -5 -4 -2 -4 -3 -2 -2 -0 -0 -1 0 1 3 2 1 1 2 1 1 1 1
-0 -0 -0 -1 -1 -1 -1 -1 -1 -1 -1 -1 -1 -1 -1 -1 -1 -1 -1 -1 -1 -1 -1 -2 -3 -3 -3 -4 -4 -2 -1 -1 -2 -2 -0 -0 0 1 1 0 0 0 1 1
-1 -1 -1 -2 -1 -1 -2 -2 -1 -1 -0 -2 -2 -2 -2 -2 -2 -2 -2 -2 -2 -2 -2 -2 -5 -3 -2 -4 -3 -4 -2 -2 -3 -3 -1 -1 -0 -1 -1 -1 -1 -1 -1 -1
-1 -1 -1 -1 -1 -2 -2 -1 -1 -1 -0 -2 -2 -2 -2 -2 -2 -3 -3 -3 -3 -3 -3 -4 -4 -3 -3 -4 -5 -6 -2 -4 -4 -4 -2 -3 -3 -2 -3 -2 -4 -3 -4 -2
-1 -1 -1 -2 -1 -1 -1 -1 -1 -1 -1 -2 -6 -2 -2 -2 -2 -2 -3 -3 -3 -3 -3 -3 -3 -2 -3 -7 -5 -3 -4 -4 -5 -4 -4 -5 -4 -3 -4 -5 -6 -5 -5 -4
-2 -2 -1 -1 -2 -2 -1 -1 -2 -2 -2 -3 -5 -4 -3 -2 -2 -2 -3 -3 -3 -3 -3 -4 -3 -3 -2 -5 -5 -5 -4 -4 -4 -3 -5 -5 -5 -7 -7 -6 -7 -7 -7 -6
-3 -3 -3 -3 -3 -3 -3 -3 -3 -3 -3 -4 -10 -8 -3 -3 -2 -2 -3 -3 -3 -4 -3 -4 -4 -4 -4 -6 -6 -6 -6 -7 -6 -6 -8 -8 -8 -8 -8 -7 -8 -8 -8 -7
-4 -4 -4 -3 -3 -3 -4 -4 -4 -4 -4 -4 -5 -8 -9 -3 -3 -3 -3 -3 -6 -4 -4 -5 -4 -5 -6 -6 -7 -7 -7 -8 -9 -9 -9 -9 -9 -9 -9 -9 -9 -9 -8 -8
-4 -3 -3 -4 -5 -5 -5 -5 -5 -5 -5 -5 -5 -5 -7 -4 -4 -4 -4 -4 -6 -6 -5 -4 -5 -4 -5 -6 -7 -8 -8 -8 -9 -10 -10 -10 -9 -10 -9 -9 -9 -9 -8 -8
-3 -3 -5 -6 -5 -5 -5 -6 -6 -6 -7 -5 -5 -5 -6 -5 -6 -8 -5 -11 -8 -9 -6 -4 -5 -5 -7 -7 -7 -7 -8 -8 -9 -10 -10 -10 -10 -10 -10 -10 -9 -9 -9 -9
-2 -2 -5 -5 -5 -6 -7 -11 -8 -8 -8 -5 -5 -5 -5 -5 -5 -6 -6 -9 -9 -8 -5 -4 -5 -6 -7 -8 -8 -8 -8 -8 -8 -10 -11 -10 -10 -10 -10 -9 -10 -9 -7 -6
-3 -3 -5 -6 -8 -9 -9 -10 -11 -10 -6 -5 -5 -5 -5 -5 -5 -7 -8 -8 -8 -6 -8 -4 -7 -8 -8 -8 -8 -7 -8 -8 -9 -10 -10 -10 -10 -9 -10 -10 -9 -8 -7 -6
-3 -4 -9 -9 -10 -9 -9 -8 -8 -6 -6 -5 -6 -6 -6 -6 -6 -6 -8 -9 -8 -8 -5 -7 -8 -8 -8 -9 -8 -8 -9 -9 -9 -10 -10 -10 -10 -10 -10 -9 -9 -8 -7 -7
-4 -4 -9 -10 -8 -7 -7 -6 -6 -6 -7 -7 -7 -7 -7 -10 -12 -11 -10 -9 -5 -7 -8 -7 -8 -9 -9 -8 -9 -9 -9 -9 -9 -10 -10 -10 -10 -10 -10 -10 -9 -8 -8 -7
-5 -6 -9 -8 -7 -7 -7 -7 -7 -7 -7 -8 -8 -11 -15 -13 -13 -10 -12 -9 -9 -8 -8 -8 -8 -8 -9 -9 -9 -9 -9 -9 -9 -9 -9 -9 -9 -10 -10 -10 -10 -9 -8 -8
-6 -8 -7 -7 -7 -7 -7 -7 -7 -7 -7 -13 -10 -13 -12 -11 -11 -11 -11 -12 -12 -10 -9 -10 -9 -9 -9 -9 -9 -9 -9 -9 -9 -9 -9 -9 -9 -9 -9 -10 -10 -9 -9 -8